Temperature
28 25 24 25 26 26 26 26 25 27 27 26 25 25 25 25 25 24 23 23 22 22 22 22 21 21 21 20 20 19 19 19 19 19 18 18 18 18 18 18 18 18 18 18
25 25 26 27 28 27 27 26 26 26 27 26 25 25 25 25 24 24 24 23 23 22 22 21 21 21 21 20 20 20 19 19 19 19 19 18 18 18 18 18 18 18 18 18
25 26 28 28 28 27 27 26 26 26 26 26 25 24 24 24 24 24 24 23 23 22 22 21 21 21 21 20 20 20 20 19 19 19 19 18 18 18 18 18 18 18 18 18
26 27 28 28 28 28 26 27 27 27 25 23 24 23 23 23 23 23 23 23 23 23 22 22 21 21 21 21 20 20 20 19 19 19 19 19 18 18 18 18 18 18 18 18
26 27 28 28 29 29 27 28 27 27 24 23 23 22 22 22 22 23 23 23 23 23 22 22 22 21 21 21 21 20 20 20 19 19 19 19 19 19 18 18 18 18 18 18
27 28 28 28 29 29 28 27 25 23 22 22 23 22 22 22 22 23 23 23 23 23 22 22 22 21 21 21 21 20 20 20 19 19 19 19 19 19 18 18 18 18 18 18
26 27 28 29 28 28 27 24 23 23 21 22 23 23 22 23 24 24 23 24 23 23 23 22 21 21 21 21 21 20 20 20 19 19 19 19 19 19 19 19 18 18 18 18
25 25 27 28 27 26 26 24 23 23 22 22 22 22 23 24 24 25 24 24 23 23 22 22 22 22 22 21 21 20 20 20 20 19 19 19 19 19 19 18 18 18 18 18
24 25 27 28 28 27 26 24 23 21 22 21 21 22 23 24 24 24 24 23 23 23 23 22 22 22 22 21 21 21 20 20 20 20 19 19 19 19 19 18 18 18 18 18
24 24 26 27 27 27 26 25 21 21 21 22 22 22 22 23 23 23 23 23 23 23 23 22 22 22 22 22 21 21 21 20 20 20 20 19 19 19 19 18 18 18 18 18
23 23 24 25 26 26 25 24 21 20 20 21 21 21 23 22 22 22 22 23 23 23 23 23 22 22 22 22 22 21 21 20 20 20 20 19 19 19 18 18 18 18 18 18
23 21 22 24 25 26 26 24 22 21 21 20 20 21 23 22 22 22 22 23 24 23 23 22 22 22 21 21 21 21 21 20 20 20 19 19 19 19 19 18 18 18 18 18
23 20 21 22 23 24 25 24 23 20 19 19 20 21 22 22 22 22 22 23 23 23 23 22 22 22 21 21 21 21 21 20 20 20 19 19 19 19 18 18 18 18 18 18
23 20 20 22 22 23 24 24 23 21 20 20 20 21 21 21 21 21 22 22 22 22 22 22 22 21 21 21 21 21 20 20 20 20 20 19 19 19 18 18 18 18 18 18
21 20 21 22 23 24 24 24 24 23 21 20 21 21 21 20 21 21 21 21 21 21 22 22 21 21 21 21 21 21 20 20 20 20 19 19 19 19 18 18 18 18 18 18
19 20 21 22 23 24 23 24 24 23 22 22 21 20 20 20 21 21 21 21 21 21 21 21 21 21 21 21 20 20 20 20 20 19 19 19 19 19 18 18 18 18 18 17
18 19 19 20 22 23 22 22 22 22 21 21 20 20 19 19 20 20 21 21 20 20 20 21 21 21 20 20 20 20 20 20 19 19 19 19 19 18 18 18 18 18 18 17
19 18 17 18 20 21 20 21 22 21 21 20 20 19 19 20 20 21 21 20 20 20 20 20 20 20 20 20 20 20 19 19 19 19 19 19 18 18 18 18 18 18 17 17
18 18 17 17 18 20 21 21 21 20 20 20 19 19 19 20 20 19 20 20 20 20 20 20 20 20 19 19 19 19 19 19 19 18 18 18 18 18 18 18 17 17 17 17
18 17 17 17 19 19 19 21 21 20 19 19 19 18 18 19 17 17 19 19 19 19 19 19 19 19 19 18 18 18 18 18 18 18 18 18 17 17 17 17 17 17 17 16
18 17 17 17 17 18 19 20 21 19 18 19 19 19 19 18 18 19 19 19 19 18 18 19 18 18 18 18 18 18 17 17 17 17 17 17 17 17 17 17 16 16 16 16
17 17 16 16 17 18 19 19 18 17 19 19 19 19 19 19 19 18 18 18 18 18 18 18 18 17 17 17 17 17 17 17 17 17 16 16 16 16 16 16 16 16 16 15
16 16 15 15 16 17 18 18 18 19 19 19 19 19 19 19 18 18 18 17 17 17 17 17 17 17 17 17 17 17 16 16 16 16 16 16 15 15 15 15 15 15 15 15
16 16 15 15 16 17 17 18 19 19 19 19 19 18 18 18 17 17 17 17 17 17 17 17 17 17 16 16 16 16 16 16 16 15 15 15 15 15 15 15 15 14 14 14
16 16 15 15 16 16 17 18 18 18 18 18 18 18 18 18 17 17 17 16 16 16 16 16 16 16 16 16 16 16 15 15 15 15 15 15 15 14 14 14 14 14 14 14
15 15 15 15 16 15 16 18 18 18 18 18 18 17 17 17 17 16 16 16 16 16 16 15 15 15 15 15 15 15 15 15 15 14 14 14 14 14 14 14 14 13 13 13
Wind_Speed
2 1 5 7 7 8 5 3 3 4 3 3 5 6 11 12 11 11 12 12 12 12 11 11 12 12 11 9 8 8 7 6 5 4 3 3 3 2 2 3 5 6 5 5
3 6 11 7 5 4 4 2 3 4 2 1 3 4 9 11 13 14 14 13 13 10 9 11 11 12 11 11 9 9 8 7 6 4 3 3 3 3 3 2 3 5 5 5
8 9 7 5 5 4 5 4 4 2 3 3 3 2 2 4 6 9 10 12 13 14 14 13 12 11 11 11 11 10 9 8 7 5 4 3 3 2 2 1 2 3 5 5
7 8 6 6 7 6 5 6 5 3 2 1 2 2 4 4 5 8 10 10 12 13 13 13 13 12 13 12 11 10 9 8 7 6 5 6 5 4 3 3 3 3 4 4
7 7 6 7 8 6 7 6 3 2 3 1 1 2 5 3 5 9 11 13 13 14 15 15 15 14 13 12 11 10 9 8 7 7 7 6 4 3 2 2 3 3 2 3
9 7 6 7 6 4 3 2 4 5 4 1 4 3 5 5 9 9 10 12 12 13 14 13 12 11 11 11 10 10 10 8 7 7 7 7 6 5 4 4 4 3 2 2
7 7 5 3 2 3 2 4 3 4 3 4 3 3 7 7 8 11 12 12 10 11 12 13 12 12 12 13 12 11 11 9 8 8 7 7 7 6 6 5 5 4 3 2
3 7 6 3 6 5 3 8 7 5 5 4 3 3 6 5 6 8 8 10 10 10 10 13 14 13 13 14 13 12 11 10 9 9 8 6 6 5 4 5 5 5 4 4
4 6 6 4 3 6 3 3 8 7 3 0 4 3 5 1 3 5 6 7 10 11 11 11 11 11 12 13 12 12 12 10 10 9 8 7 6 6 5 5 4 4 4 4
6 4 6 5 3 2 5 6 5 5 4 1 3 3 3 4 5 5 7 8 8 8 9 9 11 12 12 12 11 11 11 11 10 9 8 7 6 5 5 5 5 4 4 4
4 3 5 3 0 4 0 3 5 4 6 6 3 5 5 7 6 7 8 9 10 9 10 11 10 11 10 10 10 10 10 9 9 9 8 6 6 5 5 5 5 5 4 4
2 4 2 6 6 4 4 3 5 4 2 4 5 5 3 4 4 4 4 6 8 9 8 9 10 10 9 9 10 10 10 9 9 8 7 7 6 6 6 6 5 5 5 4
3 5 2 6 7 5 2 1 2 6 4 4 4 4 3 2 3 3 4 4 5 6 6 7 8 8 8 8 8 9 9 10 8 8 7 6 6 6 6 6 5 5 5 5
4 4 6 6 6 3 3 4 1 5 3 2 4 3 3 2 2 2 4 5 6 5 4 6 6 7 7 7 7 7 7 8 8 7 7 6 6 6 6 6 6 6 6 6
5 3 2 3 4 2 3 2 1 1 5 6 5 4 4 3 4 3 4 5 6 6 5 4 4 5 6 6 6 7 7 7 7 7 7 7 6 6 6 6 6 6 6 6
4 3 2 3 2 3 4 4 2 1 3 5 5 2 2 1 1 2 4 5 6 6 6 5 4 5 6 6 6 6 6 7 7 8 8 7 6 6 6 7 6 6 6 6
1 3 3 2 3 3 3 3 1 2 2 5 4 4 2 3 3 3 4 6 6 6 6 5 5 5 5 6 6 6 6 6 7 7 7 6 6 6 5 6 5 6 6 6
4 3 3 1 3 2 5 1 4 5 3 2 4 3 4 5 4 3 4 5 5 5 5 5 4 4 3 3 4 4 4 5 6 5 5 6 6 5 5 4 5 5 5 5
6 6 3 3 2 3 4 3 0 3 1 1 4 3 3 3 4 5 3 3 3 4 4 4 4 4 4 4 4 4 4 4 4 5 5 5 6 6 5 5 5 5 4 4
4 5 5 3 3 4 5 5 3 4 1 1 4 4 3 4 2 2 1 2 4 4 4 4 4 5 5 3 5 5 3 3 3 4 4 4 5 5 6 6 5 4 4 4
4 4 4 3 3 4 5 5 2 3 5 2 3 5 4 3 4 3 3 3 4 4 4 4 4 4 3 3 4 5 4 3 3 3 3 3 3 4 4 4 3 3 4 3
3 3 2 3 3 5 4 2 3 5 2 1 2 3 3 3 3 4 5 5 5 4 4 4 4 3 2 2 4 3 2 2 1 2 2 2 2 3 3 2 2 2 3 3
1 4 4 4 4 4 2 2 3 3 2 1 2 2 3 4 4 4 4 4 4 4 3 4 5 4 2 2 3 3 1 1 2 2 1 1 1 1 1 2 2 2 2 2
2 1 3 2 1 0 2 3 3 2 3 2 2 2 2 4 5 5 5 4 4 4 4 4 5 4 2 1 2 2 2 2 3 2 1 1 2 1 1 1 2 2 2 2
2 1 2 1 1 2 2 1 1 2 4 4 4 3 3 5 5 5 5 5 4 4 3 3 3 3 2 1 1 1 2 3 3 2 1 1 2 2 1 1 1 1 2 3
2 2 3 4 5 4 3 2 1 2 2 3 4 3 3 4 5 5 5 4 5 4 3 3 3 2 2 2 2 1 1 3 3 2 1 1 1 1 2 2 2 3 1 2
Wind_Direction
284 88 242 235 221 212 210 230 247 259 220 174 188 186 181 181 174 171 168 167 169 172 169 162 160 157 152 150 148 150 150 156 150 142 139 131 132 139 140 152 161 161 158 150
342 260 240 230 234 230 232 251 262 294 265 159 192 198 181 183 181 177 172 171 169 165 162 164 163 161 160 160 157 155 158 161 162 161 159 154 149 154 162 154 156 162 160 161
218 243 248 244 242 235 256 216 222 236 358 58 95 7 173 195 180 181 176 173 170 170 170 170 168 169 166 166 167 166 164 163 164 156 138 127 103 96 104 122 150 166 163 166
236 245 249 237 233 215 252 236 207 189 112 252 136 200 258 209 190 190 184 181 179 177 175 173 172 173 176 175 172 166 165 166 168 162 154 149 150 158 182 177 169 171 171 168
246 238 236 237 238 207 226 229 170 160 138 82 31 146 267 184 203 213 196 186 183 182 179 178 178 180 179 176 174 169 164 168 169 167 165 162 164 173 163 153 153 165 178 180
249 251 220 220 239 205 202 59 54 56 72 7 241 173 252 215 208 208 205 196 186 179 179 178 175 173 177 175 172 170 168 172 173 169 167 168 169 168 155 157 166 177 180 185
289 290 274 231 257 295 107 96 39 5 10 253 242 179 238 229 204 199 197 190 181 175 175 172 173 174 177 175 174 173 172 176 177 174 174 177 179 176 175 176 179 177 180 192
239 281 265 240 193 200 203 145 159 190 215 267 311 230 256 239 204 188 179 171 164 170 176 176 178 174 173 173 173 174 177 180 180 179 180 180 179 179 184 183 181 186 192 200
191 252 281 271 228 162 178 178 167 147 165 168 293 300 313 255 178 177 163 164 173 176 174 178 178 172 170 170 174 177 179 180 182 183 180 180 180 180 181 179 179 186 194 198
167 233 283 296 359 319 168 160 96 117 144 225 298 287 240 229 200 181 174 180 182 175 174 180 182 176 174 171 169 172 177 181 181 182 185 188 188 185 179 172 175 181 189 192
150 169 300 353 216 246 1 87 106 118 145 153 211 268 233 205 195 178 179 176 172 177 178 183 185 180 174 166 168 170 177 178 179 182 184 185 184 184 177 178 188 190 184 178
147 135 245 262 260 222 149 152 139 146 200 157 163 256 275 194 168 149 157 161 162 168 177 180 177 170 167 171 176 177 179 178 179 177 176 182 182 182 186 191 193 188 185 187
103 106 51 335 335 355 31 27 118 134 130 147 166 244 341 55 89 116 131 140 144 143 159 167 162 167 171 173 176 176 178 180 179 172 169 173 183 188 197 199 196 193 191 192
110 111 158 196 230 268 313 332 61 109 126 170 197 208 310 9 119 129 131 131 131 135 145 154 155 169 174 171 170 174 179 176 173 171 171 179 189 194 200 201 198 197 196 195
89 114 171 223 241 284 309 310 354 135 164 168 194 186 220 214 194 167 137 133 130 132 127 143 157 168 167 166 168 169 171 170 170 169 178 191 195 194 193 198 204 201 200 207
67 114 61 352 340 359 342 345 359 57 126 137 142 195 225 171 117 111 131 139 135 139 134 138 147 152 158 166 166 165 166 167 165 172 184 188 186 193 200 200 199 199 206 210
62 104 79 282 320 15 320 320 51 91 119 136 165 210 151 102 105 136 149 141 137 136 127 138 159 160 164 168 162 162 166 165 167 178 183 182 183 193 202 200 193 199 207 208
154 121 131 137 39 232 245 297 92 96 71 110 143 156 150 153 146 121 124 133 136 136 132 134 139 140 145 141 145 149 150 153 166 178 187 189 186 191 195 196 203 209 204 205
160 143 128 123 165 261 297 325 203 124 346 90 134 131 119 117 67 34 41 107 133 131 130 137 132 125 114 114 120 117 122 148 165 184 192 192 186 186 190 200 208 208 200 204
77 112 125 130 155 222 250 281 277 102 277 308 114 121 114 82 83 269 335 81 85 91 98 110 113 101 102 110 117 117 127 141 174 202 201 196 188 187 196 206 212 208 198 207
37 52 116 155 191 245 270 288 2 126 227 257 127 138 143 169 198 195 142 97 96 94 93 91 100 104 112 125 129 136 146 179 199 194 182 176 177 189 198 204 208 201 196 194
154 131 155 143 172 243 301 43 143 197 216 169 155 157 145 143 127 120 117 111 109 102 97 91 92 90 81 94 116 132 168 205 150 128 145 162 174 192 194 176 184 174 167 168
115 176 168 170 203 250 1 126 174 159 133 139 140 152 135 124 126 121 121 122 118 114 106 100 99 92 76 77 106 129 183 124 103 90 125 146 146 159 165 172 174 154 146 156
324 66 108 91 228 192 58 77 72 106 128 137 135 148 137 141 147 144 140 134 124 112 105 103 95 96 99 107 104 138 146 114 105 111 159 150 129 126 125 154 158 152 160 166
269 22 75 108 206 38 22 57 97 81 87 92 92 105 131 134 137 145 144 138 127 112 102 103 105 116 126 107 93 107 123 114 107 104 114 118 124 135 113 85 85 152 178 179
272 176 163 215 222 185 218 239 99 94 92 103 99 77 74 107 122 125 131 128 122 117 108 95 93 114 121 109 97 81 112 125 120 105 87 110 133 130 123 104 66 50 120 143
Height
1488 1495 1500 1497 1494 1495 1498 1504 1506 1498 1491 1495 1499 1501 1501 1502 1505 1507 1508 1511 1512 1514 1516 1518 1519 1520 1522 1523 1524 1526 1527 1528 1529 1530 1530 1531 1532 1532 1534 1534 1536 1537 1538 1539
1494 1497 1488 1486 1487 1489 1494 1502 1503 1495 1489 1495 1501 1502 1500 1500 1501 1502 1505 1508 1510 1513 1516 1517 1518 1519 1520 1522 1523 1525 1526 1528 1529 1530 1531 1532 1533 1534 1535 1536 1536 1538 1539 1540
1495 1488 1481 1484 1487 1491 1493 1499 1499 1499 1494 1495 1503 1510 1505 1501 1502 1504 1505 1506 1507 1509 1512 1514 1516 1517 1519 1520 1522 1523 1525 1527 1529 1531 1532 1533 1534 1535 1535 1536 1537 1538 1539 1540
1488 1481 1481 1484 1486 1487 1497 1487 1489 1493 1504 1514 1509 1528 1512 1505 1503 1503 1504 1506 1506 1508 1509 1511 1513 1515 1517 1518 1521 1522 1524 1527 1528 1530 1531 1532 1533 1534 1535 1536 1537 1538 1539 1540
1486 1478 1479 1483 1480 1480 1486 1481 1485 1491 1502 1513 1513 1525 1518 1506 1507 1503 1501 1502 1503 1505 1506 1508 1510 1512 1514 1517 1519 1521 1524 1526 1528 1529 1531 1532 1533 1534 1536 1537 1538 1538 1539 1540
1477 1471 1472 1474 1472 1474 1477 1484 1490 1498 1510 1527 1516 1523 1522 1507 1501 1498 1497 1498 1500 1501 1504 1506 1508 1511 1513 1516 1518 1520 1523 1525 1527 1528 1530 1531 1533 1534 1535 1536 1537 1538 1539 1539
1482 1474 1469 1469 1475 1476 1480 1501 1522 1527 1535 1531 1512 1516 1514 1493 1489 1489 1491 1493 1497 1499 1501 1504 1507 1508 1511 1513 1516 1519 1521 1523 1525 1527 1529 1530 1532 1533 1534 1535 1536 1537 1538 1538
1494 1493 1473 1468 1473 1480 1482 1495 1522 1535 1538 1529 1514 1516 1503 1487 1485 1486 1488 1491 1495 1499 1501 1502 1503 1504 1507 1510 1513 1516 1519 1521 1523 1525 1527 1529 1530 1532 1533 1534 1535 1536 1537 1538
1492 1490 1469 1465 1464 1470 1482 1490 1492 1513 1522 1530 1523 1511 1497 1486 1486 1486 1489 1491 1494 1496 1498 1500 1502 1504 1506 1508 1511 1514 1517 1520 1522 1524 1525 1527 1529 1530 1531 1533 1534 1535 1536 1537
1478 1487 1474 1466 1464 1467 1472 1480 1498 1513 1530 1536 1526 1518 1511 1495 1490 1488 1488 1489 1492 1494 1496 1499 1501 1502 1504 1507 1510 1513 1516 1518 1519 1522 1524 1525 1527 1528 1530 1531 1532 1533 1534 1535
1473 1487 1482 1475 1476 1479 1478 1484 1495 1509 1513 1530 1536 1524 1492 1489 1486 1487 1486 1487 1490 1492 1494 1497 1499 1501 1503 1506 1509 1511 1514 1516 1518 1520 1522 1523 1525 1527 1528 1529 1530 1531 1532 1533
1472 1486 1492 1482 1470 1466 1472 1480 1491 1508 1515 1517 1525 1519 1484 1484 1483 1484 1485 1486 1488 1490 1493 1496 1499 1501 1503 1505 1507 1509 1511 1513 1516 1518 1520 1521 1523 1524 1525 1526 1527 1529 1530 1530
1472 1487 1501 1496 1487 1476 1476 1477 1482 1492 1506 1516 1522 1512 1484 1483 1484 1485 1485 1486 1487 1489 1491 1494 1497 1499 1501 1503 1505 1507 1509 1511 1514 1516 1517 1519 1520 1522 1522 1523 1525 1526 1527 1528
1467 1485 1497 1503 1495 1484 1482 1479 1479 1489 1506 1512 1508 1502 1491 1487 1486 1485 1485 1485 1486 1488 1490 1492 1494 1498 1500 1501 1503 1505 1507 1509 1511 1513 1514 1516 1517 1518 1520 1521 1522 1523 1524 1525
1469 1484 1483 1483 1478 1477 1478 1479 1478 1483 1489 1499 1498 1495 1492 1488 1486 1485 1485 1486 1487 1488 1490 1492 1494 1496 1499 1500 1501 1503 1505 1507 1509 1510 1512 1513 1515 1516 1517 1518 1519 1520 1521 1522
1472 1482 1483 1483 1476 1476 1479 1477 1476 1478 1481 1487 1489 1492 1486 1485 1486 1487 1487 1487 1488 1488 1488 1490 1493 1495 1497 1498 1499 1500 1502 1504 1506 1508 1509 1510 1511 1513 1514 1514 1515 1517 1518 1519
1477 1483 1491 1494 1482 1480 1490 1481 1479 1480 1480 1483 1491 1490 1486 1486 1486 1486 1487 1487 1487 1487 1487 1488 1490 1492 1494 1496 1497 1498 1499 1502 1503 1505 1505 1506 1508 1509 1510 1511 1512 1513 1514 1515
1476 1484 1494 1497 1492 1502 1490 1476 1475 1479 1481 1480 1481 1482 1483 1484 1484 1485 1485 1486 1486 1486 1486 1488 1489 1490 1492 1494 1496 1497 1498 1499 1501 1502 1502 1503 1504 1505 1507 1508 1509 1510 1511 1512
1467 1479 1492 1501 1503 1496 1484 1478 1477 1481 1485 1480 1480 1481 1482 1483 1483 1484 1484 1485 1486 1486 1486 1488 1489 1490 1491 1493 1494 1495 1496 1497 1498 1499 1499 1500 1501 1502 1503 1504 1505 1506 1507 1508
1467 1473 1487 1497 1501 1503 1489 1476 1473 1477 1488 1479 1478 1478 1481 1482 1487 1486 1484 1484 1485 1486 1487 1488 1489 1490 1491 1492 1493 1493 1494 1495 1496 1496 1496 1497 1498 1499 1500 1501 1502 1503 1504 1504
1479 1482 1489 1495 1500 1492 1479 1473 1473 1489 1489 1478 1477 1478 1479 1481 1482 1482 1483 1484 1485 1486 1486 1487 1488 1488 1489 1490 1491 1491 1492 1493 1493 1494 1494 1494 1495 1496 1497 1497 1498 1499 1500 1500
1484 1488 1491 1495 1499 1495 1475 1474 1478 1481 1476 1476 1477 1477 1478 1479 1480 1480 1482 1482 1483 1485 1486 1487 1487 1488 1489 1489 1490 1490 1490 1490 1491 1492 1492 1492 1493 1494 1494 1494 1495 1495 1496 1497
1481 1482 1485 1488 1490 1479 1474 1474 1474 1474 1475 1475 1476 1477 1477 1478 1480 1480 1481 1482 1483 1484 1485 1486 1486 1487 1488 1488 1489 1488 1488 1489 1489 1490 1490 1490 1490 1491 1492 1492 1492 1492 1492 1493
1478 1475 1480 1483 1480 1477 1476 1475 1474 1474 1473 1474 1475 1476 1477 1478 1479 1480 1481 1482 1483 1484 1484 1485 1485 1485 1486 1487 1487 1487 1487 1487 1487 1488 1488 1488 1489 1489 1490 1490 1489 1489 1489 1489
1479 1477 1480 1482 1480 1478 1477 1476 1475 1474 1474 1474 1475 1476 1476 1477 1478 1479 1480 1481 1482 1483 1484 1484 1484 1484 1485 1485 1486 1486 1486 1486 1485 1485 1486 1487 1487 1487 1487 1487 1487 1487 1487 1487
1477 1478 1481 1482 1477 1478 1477 1476 1475 1474 1473 1474 1475 1476 1477 1477 1477 1478 1479 1481 1482 1483 1484 1484 1484 1484 1484 1484 1485 1485 1485 1484 1484 1484 1484 1485 1485 1485 1485 1485 1485 1485 1486 1485